Location: Boley
(53.1150°N, 8.2269°W)
Time: 03:20:16
(UTC+00:00)

Meteor 2-10 - Pass Details

Date: 15 May 2026
Orbit: 737 x 865 km, 81.2° (Epoch: 8 June)

Event Time Altitude Azimuth Distance (km) Brightness Sun altitude
Rises 22:10:47 0° 345° (NNW) 3,455 8.9 -11.9°
Reaches altitude 10° 22:13:13 10° 344° (NNW) 2,519 8.0 -12.1°
Maximum altitude 22:18:58 78° 260° (W) 889 4.4 -12.5°
Enters shadow 22:23:48 15° 175° (S) 2,173 5.8 -12.9°
